Location: Berbisdorf
(50.7638°N, 12.9442°E)
Time: 11:28:28
(UTC+00:00)

SL-16 R/B - Pass Details

Date: 07 June 2020
Orbit: 986 x 1006 km, 99.5° (Epoch: 10 July)

Event Time Altitude Azimuth Distance (km) Brightness Sun altitude
Exits shadow 01:55:27 - 210° (SSW) 2,851 4.3 -7.6°
Reaches altitude 10° 01:55:49 10° 212° (SSW) 2,741 4.2 -7.6°
Maximum altitude 02:00:55 27° 268° (W) 1,811 3.6 -7.1°
Drops below altitude 10° 02:06:04 10° 324° (NW) 2,764 5.1 -6.6°
Sets 02:09:00 0° 337° (NNW) 3,721 5.9 -6.3°
